Radiation Dose measured at exhaust stack monitor of Fukushima Daiichi Nuclear Power Station
Date,Time,Unit 5 6 shared exhaust cylinders,Wind Direction,Wind Velocity(m/s)
2021/12/16,00:00,3.8,west-northwest,6.3
2021/12/16,00:10,4.0,west-northwest,5.2
2021/12/16,00:20,3.9,west-northwest,3.8
2021/12/16,00:30,4.0,northwest,2.3
2021/12/16,00:40,3.9,west-northwest,2.3
2021/12/16,00:50,4.1,northwest,4.3
2021/12/16,01:00,3.9,northwest,4.3
2021/12/16,01:10,3.9,northwest,4.2
2021/12/16,01:20,3.9,northwest,5.0
2021/12/16,01:30,3.9,northwest,4.9
2021/12/16,01:40,4.0,northwest,4.5
2021/12/16,01:50,3.9,northwest,3.1
2021/12/16,02:00,4.1,northwest,4.4
2021/12/16,02:10,4.1,west-northwest,5.7
2021/12/16,02:20,4.0,west,6.0
2021/12/16,02:30,3.9,west,6.4
2021/12/16,02:40,4.1,west,6.2
2021/12/16,02:50,4.0,west,5.3
2021/12/16,03:00,3.9,west-southwest,4.6
2021/12/16,03:10,3.7,west,4.2
2021/12/16,03:20,3.9,west,5.0
2021/12/16,03:30,4.0,west-southwest,4.7
2021/12/16,03:40,3.9,southwest,4.6
2021/12/16,03:50,4.0,south-southwest,2.9
2021/12/16,04:00,4.0,south-southwest,5.7
2021/12/16,04:10,4.0,south,5.9
2021/12/16,04:20,3.8,south,5.9
2021/12/16,04:30,4.0,south,6.3
2021/12/16,04:40,3.8,south,5.2
2021/12/16,04:50,3.9,south,3.6
2021/12/16,05:00,4.0,southwest,1.7
2021/12/16,05:10,3.9,southeast,0.6
2021/12/16,05:20,4.1,south-southeast,2.3
2021/12/16,05:30,3.9,south,2.6
2021/12/16,05:40,4.0,south,3.2
2021/12/16,05:50,3.9,south-southeast,3.3
2021/12/16,06:00,4.0,south-southeast,2.9
2021/12/16,06:10,4.0,south-southeast,2.3
2021/12/16,06:20,4.2,south-southeast,2.3
2021/12/16,06:30,3.7,south-southeast,2.0
2021/12/16,06:40,3.9,south-southeast,2.6
2021/12/16,06:50,4.0,south,4.1
2021/12/16,07:00,3.9,south,4.9
2021/12/16,07:10,3.8,south,5.6
2021/12/16,07:20,3.8,south,5.4
2021/12/16,07:30,4.1,south,6.5
2021/12/16,07:40,4.0,south,6.5
2021/12/16,07:50,3.9,south,6.8
2021/12/16,08:00,3.9,south,6.1
2021/12/16,08:10,4.0,south,5.7
2021/12/16,08:20,3.8,south-southwest,5.0
2021/12/16,08:30,3.8,south,5.9
2021/12/16,08:40,4.0,south-southwest,7.1
2021/12/16,08:50,4.0,south-southwest,5.9
2021/12/16,09:00,3.9,south-southwest,3.8
2021/12/16,09:10,3.9,south-southwest,2.9
2021/12/16,09:20,4.1,south-southwest,1.5
2021/12/16,09:30,4.0,south-southwest,1.2
2021/12/16,09:40,4.1,south,2.6
2021/12/16,09:50,3.8,south,2.3
2021/12/16,10:00,3.9,south,2.6
2021/12/16,10:10,4.0,south-southeast,3.5
2021/12/16,10:20,4.0,south,3.6
2021/12/16,10:30,4.0,south-southwest,4.4
2021/12/16,10:40,3.9,south-southwest,4.7
2021/12/16,10:50,4.0,south-southwest,5.6
2021/12/16,11:00,4.0,south-southwest,5.7
2021/12/16,11:10,4.0,south-southwest,5.4
2021/12/16,11:20,4.0,south-southwest,4.3
2021/12/16,11:30,3.9,south-southwest,4.1
2021/12/16,11:40,4.1,south,4.2
2021/12/16,11:50,4.0,south,5.4
2021/12/16,12:00,3.9,south,5.5
2021/12/16,12:10,4.1,south-southwest,5.2
2021/12/16,12:20,4.0,south,4.8
2021/12/16,12:30,4.0,south,4.7
2021/12/16,12:40,4.0,south,5.1
2021/12/16,12:50,3.9,south,6.2
2021/12/16,13:00,4.0,south,5.6
2021/12/16,13:10,4.0,south,6.7
2021/12/16,13:20,3.9,south,7.7
2021/12/16,13:30,3.9,south,8.5
2021/12/16,13:40,4.1,south,9.6
2021/12/16,13:50,3.8,south,9.2
2021/12/16,14:00,4.0,south,8.0
2021/12/16,14:10,4.1,south,6.7
2021/12/16,14:20,4.2,south,6.6
2021/12/16,14:30,3.9,south,6.7
2021/12/16,14:40,3.9,south,6.9
2021/12/16,14:50,4.1,south,7.5
2021/12/16,15:00,3.9,south,7.4
2021/12/16,15:10,3.9,south,8.6
2021/12/16,15:20,3.9,south,8.3
2021/12/16,15:30,4.1,south,7.7
2021/12/16,15:40,4.0,south,7.9
2021/12/16,15:50,4.0,south,7.8
2021/12/16,16:00,4.2,south,6.6
2021/12/16,16:10,4.2,south,7.3
2021/12/16,16:20,3.9,south-southwest,7.4
2021/12/16,16:30,4.0,south-southwest,7.7
2021/12/16,16:40,4.0,south-southwest,6.0
2021/12/16,16:50,4.0,south-southwest,6.2
2021/12/16,17:00,4.0,south-southwest,7.0
2021/12/16,17:10,3.9,south-southwest,6.8
2021/12/16,17:20,4.1,south-southwest,5.5
2021/12/16,17:30,4.1,south-southwest,5.5
2021/12/16,17:40,4.1,southwest,5.9
2021/12/16,17:50,4.0,southwest,6.0
2021/12/16,18:00,4.0,southwest,7.7
2021/12/16,18:10,3.9,southwest,7.6
2021/12/16,18:20,4.0,south-southwest,7.8
2021/12/16,18:30,4.0,southwest,6.9
2021/12/16,18:40,3.9,southwest,8.9
2021/12/16,18:50,3.8,west-southwest,7.3
2021/12/16,19:00,4.0,southwest,6.3
2021/12/16,19:10,3.9,southwest,5.5
2021/12/16,19:20,3.8,south-southwest,4.8
2021/12/16,19:30,3.8,south-southwest,3.1
2021/12/16,19:40,3.9,southwest,3.3
2021/12/16,19:50,3.9,west,1.2
2021/12/16,20:00,4.0,west-northwest,2.0
2021/12/16,20:10,4.1,west-northwest,2.0
2021/12/16,20:20,4.0,west-northwest,1.7
2021/12/16,20:30,4.0,northeast,0.8
2021/12/16,20:40,4.1,northeast,1.5
2021/12/16,20:50,4.2,southwest,2.3
2021/12/16,21:00,4.1,west-southwest,3.9
2021/12/16,21:10,4.0,west-southwest,5.2
2021/12/16,21:20,3.9,southwest,2.5
2021/12/16,21:30,4.0,south-southwest,1.4
2021/12/16,21:40,3.9,south-southwest,2.0
2021/12/16,21:50,4.1,southwest,2.9
2021/12/16,22:00,4.1,south,3.8
2021/12/16,22:10,3.9,south,3.1
2021/12/16,22:20,3.9,southwest,1.7
2021/12/16,22:30,4.0,south-southwest,1.2
2021/12/16,22:40,4.0,northwest,0.9
2021/12/16,22:50,4.0,north-northwest,2.6
2021/12/16,23:00,3.8,northwest,4.5
2021/12/16,23:10,4.0,northwest,5.6
2021/12/16,23:20,3.8,northwest,4.9
2021/12/16,23:30,3.9,northwest,4.3
2021/12/16,23:40,3.9,north-northwest,3.2
2021/12/16,23:50,4.1,north,2.8
